Regional Weather Roundup
Issued by NWS

Home | Current Version | Previous Version | Text Only | Print | Product List | Glossary Off
Versions: 1 2 3 4 5 6 7 8 9 10 11 12 13 14 15 16 17 18 19 20 21 22 23 24 25 26 27 28 29 30 31 32 33 34 35 36 37 38 39 40 41 42 43 44 45 46 47 48 49 50

000
ASUS43 KMPX 211301
RWRMN
WEATHER ROUNDUP FOR MINNESOTA
NATIONAL WEATHER SERVICE TWIN CITIES/CHANHASSEN MN
700 AM CST FRI NOV 21 2014


NOTE: "FAIR" INDICATES FEW OR NO CLOUDS BELOW 12,000 FEET WITH NO
SIGNIFICANT WEATHER AND/OR OBSTRUCTIONS TO VISIBILITY. N/A MEANS
CURRENT SKY AND/OR WEATHER CONDITIONS ARE NOT AVAILABLE.

MNZ060>063-068>070-211400-
   Twin Cities Metro

CITY           SKY/WX    TMP DP  RH WIND       PRES   REMARKS
TWIN CITIES    PTCLDY     7   1  76 SE9       30.22S WCI  -7
ST PAUL        PTCLDY     4   1  88 S8        30.25S WCI  -9
CRYSTAL        PTCLDY     8   2  76 SE7       30.19S WCI  -3
BLAINE         CLEAR      7   3  85 SE8       30.19S WCI  -6
LAKEVILLE      PTCLDY     1   0  92 SE3       30.20F
EDEN PRAIRIE   PTCLDY    10   4  76 S9        30.19S WCI  -3
SOUTH ST PAUL  CLEAR      5   1  84 CALM      30.23R
LAKE ELMO      FAIR       5   1  85 S5        30.22S WCI  -4
$$
MNZ001>005-007-008-013>017-022>024-027-028-211400-
   Northwest Minnesota

CITY           SKY/WX    TMP DP  RH WIND       PRES   REMARKS
BEMIDJI        CLOUDY    12   6  77 S13       29.93F WCI  -3
HALLOCK        PTCLDY    16  10  79 S23       29.79F WCI  -2
ROSEAU         CLEAR     16   9  73 S10       29.83F WCI   3
WARROAD        PTCLDY    16   9  73 S9        29.83F WCI   4
THIEF RVR FALL PTCLDY    16  12  86 S17G23    29.84F WCI   0
CROOKSTON      PTCLDY    16  10  79 S22G28    29.87F WCI  -2
FOSSTON        CLOUDY    16  10  79 S18       29.88F WCI  -1
DETROIT LAKES  CLEAR     18  12  79 S14       29.93F WCI   4
MOORHEAD       CLEAR     16  12  86 S22       29.92F WCI  -2
PARK RAPIDS    PTCLDY     7   3  84 S12       29.96F WCI  -8
MAHNOMEN       FAIR      15  10  81 S14G21    29.91F WCI   1
$$
MNZ006-009>011-018-025>026-211400-
   North Central Minnesota

CITY           SKY/WX    TMP DP  RH WIND       PRES   REMARKS
BAUDETTE       CLOUDY    14   4  64 S13       29.85F WCI   0
FLAG ISLAND    CLOUDY    16  10  79 S20G26    29.82F WCI  -1
INTL FALLS     CLOUDY    11   1  64 S10G18    29.92F WCI  -3
WASKISH        PTCLDY    16   7  67 S5        29.89F WCI   9
BIG FORK       CLOUDY    12   3  67 S13G22    29.97F WCI  -3
LONGVILLE      PTCLDY    10   5  79 S9        30.00F WCI  -2
GRAND RAPIDS   CLOUDY     9   1  72 S16       30.00F WCI  -9
CRANE LAKE     CLOUDY     9   1  72 S7        30.02F WCI  -3
ORR            MOCLDY     7   0  72 S12       29.97S WCI  -9
COOK           CLOUDY     9   0  66 S10G17    30.01F WCI  -6
WALKER         FAIR      12   5  74 S9G17     29.97F WCI  -1
$$
MNZ012-019>021-037-211400-
   Northeast Minnesota

CITY           SKY/WX    TMP DP  RH WIND       PRES   REMARKS
DULUTH         MOCLDY     8   0  69 SW13      30.08F WCI  -8
ELY            CLOUDY     9   0  66 S9        30.04F WCI  -5
HIBBING        CLOUDY     7   0  73 S6        30.04F WCI  -3
EVELETH        PTCLDY     9   1  72 S7        30.06F WCI  -3
DULUTH HARBOR  PTCLDY     3  -2  78 CALM      30.18F
TWO HARBORS    PTCLDY    10   3  72 SW5       30.10F WCI   2
SILVER BAY     PTCLDY     9   5  85 SW3       30.11S
GRAND MARAIS     N/A     14   1  56 NW5       30.16F WCI   6
G MARAIS ARPRT CLOUDY     3  -2  78 S5        30.05F WCI  -6
$$
MNZ029>031-032-039>041-046>048-054>057-064-211400-
   West Central Minnesota

CITY           SKY/WX    TMP DP  RH WIND       PRES   REMARKS
FERGUS FALLS   PTCLDY    14   9  79 S17G23    30.00F WCI  -3
WHEATON        MOCLDY    12   9  85 SE16      29.97F WCI  -4
MORRIS         MOCLDY    12   9  85 SE20      29.98F WCI  -6
ALEXANDRIA     PTCLDY    16  10  77 S18       30.00F WCI   0
ELBOW LAKE       N/A     15  10  83 S25       29.96F WCI  -5
WADENA         PTCLDY    12   7  79 S14G21    29.98F WCI  -3
GLENWOOD       PTCLDY    14  10  85 S17G25    30.03F WCI  -3
APPLETON       MOCLDY    16  10  79 S14       30.02F WCI   1
BENSON         MOCLDY    10   7  85 S16       30.03F WCI  -7
ORTONVILLE     MOCLDY    10   7  85 SE15      29.98F WCI  -6
MADISON        PTCLDY    19  16  86 SE13      30.02F WCI   7
WILLMAR        FAIR      12   9  85 SE12      30.09F WCI  -2
$$
MNZ033>034-036-042>043-049>051-058-059-211400-
   Central Minnesota

CITY           SKY/WX    TMP DP  RH WIND       PRES   REMARKS
ST CLOUD       PTCLDY     7   2  80 SE10      30.13F WCI  -8
SAUK CENTRE    CLOUDY    10   6  87 SE9       30.06F WCI  -4
PAYNESVILLE    MOCLDY    11   8  87 SE14      30.09F WCI  -5
AITKIN         PTCLDY    12   3  67 S9        30.06F WCI   0
PINE RIVER     PTCLDY     7   3  85 S12       30.04F WCI  -9
BRAINERD       PTCLDY     8   4  83 S12       30.06F WCI  -7
STAPLES        PTCLDY     9   5  85 S12G17    30.00F WCI  -6
LONG PRAIRIE   MOCLDY    10   5  79 SE13      30.04F WCI  -5
LITTLE FALLS   PTCLDY     7   3  85 SE8       30.09F WCI  -6
LITCHFIELD     PTCLDY    12  10  92 SE3       30.12F
BUFFALO        MOCLDY    11   6  81 S8        30.18F WCI  -1
MAPLE LAKE     MOCLDY    10   8  92 S8        30.16F WCI  -2
$$
MNZ037-044-045-052-053-211400-
   East Central Minnesota

CITY           SKY/WX    TMP DP  RH WIND       PRES   REMARKS
PRINCETON      PTCLDY     9   3  78 SE3       30.15F VSB 1
MORA             N/A    N/A N/A N/A MISG        N/A
CAMBRIDGE      PTCLDY     5  -2  72 SE6       30.16F WCI  -6
RUSH CITY      MOCLDY     0  -3  85 S5        30.19S WCI -10
MOOSE LAKE     PTCLDY    -4  -8  84 CALM      30.13R
HINCKLEY       FAIR       1  -2  85 CALM      30.16F
CLOQUET        MOCLDY     3  -2  78 S10       30.09F WCI -12
MCGREGOR       MOCLDY     7   1  78 S12       30.08F WCI  -9
$$
MNZ071>073-080-081-089-090-097-098-211400-
   Southwest Minnesota

CITY           SKY/WX    TMP DP  RH WIND       PRES   REMARKS
MONTEVIDEO     PTCLDY    12  10  92 S10G18    30.06F WCI  -1
GRANITE FALLS  MOCLDY    14  10  83 SE14G20   30.09F WCI  -1
CANBY          PTCLDY    23  17  78 S17G24    30.01F WCI   9
MARSHALL       PTCLDY    19  12  73 S20G25    30.05F WCI   4
REDWOOD FALLS  PTCLDY    10   5  80 SE14      30.12F WCI  -6
OLIVIA         MOCLDY    12   9  85 S14       30.11S WCI  -3
PIPESTONE      PTCLDY    16  10  79 S18       30.04F WCI  -1
WINDOM         CLEAR     16  12  86 S13       30.10F WCI   2
WORTHINGTON    PTCLDY    12   9  85 S20       30.10F WCI  -6
JACKSON        PTCLDY    18  10  73 S17G23    30.13F WCI   2
TRACY          PTCLDY    17  12  80 S17G23    30.05F WCI   2
SLAYTON        MOCLDY    16  13  87 S21G26    30.06F WCI  -1
$$
MNZ065>067-074>077-082>085-091>093-211400-
   South Central Minnesota

CITY           SKY/WX    TMP DP  RH WIND       PRES   REMARKS
MANKATO        MOCLDY    10   1  67 S8        30.19S WCI  -1
NEW ULM        PTCLDY     9   5  85 S14       30.15F WCI  -8
FAIRMONT       PTCLDY     9   3  78 S13       30.17F WCI  -7
GLENCOE        MOCLDY    11   8  85 S8        30.16F WCI   0
FARIBAULT      PTCLDY    10   5  79 S12       30.20S WCI  -4
OWATONNA       PTCLDY    12   5  73 S17       30.20R WCI  -5
WASECA         MOCLDY    12   3  67 S13       30.22S WCI  -3
ALBERT LEA       N/A      9   7  92 S10       30.22S WCI  -6
$$
MNZ078>079-086>088-094>096-211400-
   Southeast Minnesota

CITY           SKY/WX    TMP DP  RH WIND       PRES   REMARKS
ROCHESTER      PTCLDY     6   2  83 S12       30.23F WCI  -9
RED WING         N/A      7   1  78 SE6       30.25F WCI  -3
STANTON        PTCLDY    12   6  76 S6        30.20S WCI   2
DODGE CENTER   PTCLDY     9   7  92 S15       30.19F WCI  -8
WINONA         PTCLDY     9   3  78 CALM      30.33S
AUSTIN         PTCLDY     5   1  85 S7        30.23F WCI  -7
PRESTON        PTCLDY     2  -1  85 S9        30.26S WCI -12
$$
ABBREVIATIONS USED IN REMARKS
   TC - TEMPERATURES IN CELSIUS
  WCI - WIND CHILL INDEX
   HX - HEAT INDEX
  VSB - VISIBILITY
$$


USA.gov is the U.S. government's official web portal to all federal, state and local government web resources and services.